www.pogodaiklimat.ru

Погода и климат >> Архив погоды >> Россия >> Свердловская область >> Екатеринбург


АРХИВ ПОГОДЫ в Екатеринбурге

Время (UTC), дата Ветер
(напр.,м/с)
 
Видим.   Явления Облачность Т
(С)
Тd
(С)
f
(%)
Тe
(С)
Тes
(С)
Комфортность P
(гПа)
Po
(гПа)
Тmin
(С)
Tmax
(С)
R
(мм)
S
(см)
21 14.02 ЮЗ 2 10 км 6/0
[Cs]
-12.8 -16.9 71 -17 -17 по сезону 1017.6 980.9
00 15.02 ЮЗ 2 10 км слабый ливневой снег 9/8 600 м
[Cb cap Cs]
-12.7 -16.1 76 -17 -17 по сезону 1017.7 981.1
03 15.02 ЮЗ 3 10 км {ливн. осадки} 3/1 600 м
[Sc Ci fib]
-12.9 -16.3 76 -19 -19 по сезону 1017.6 981.0 -13.2 49
06 15.02 Ю 2 20 км {ливн. осадки} 10/0
[Ac trans Cc]
-10.0 -15.3 65 -14 -13 по сезону 1017.9 981.6
09 15.02 ЮЗ 4 50 км 10/0
[Ac As Cc]
-7.2 -14.4 56 -14 -13 по сезону 1017.8 981.9
12 15.02 З 4 50 км 10/0
[Cs]
-7.5 -14.0 60 -14 -14 по сезону 1018.2 982.2
15 15.02 Ю 2 10 км в посл. час снег 10/0
[Ac As Cs]
-8.6 -13.6 67 -13 -13 по сезону 1019.1 982.9 -6.7
18 15.02 Ю 2 10 км {снег} 10/0
[Ac As]
-8.9 -12.7 74 -13 -13 по сезону 1019.6 983.4
21 15.02 Ю 1 10 км слабый снег 10/0
[As op]
-9.8 -12.3 82 -12 -12 по сезону 1020.0 983.7
00 16.02 ЮВ 1 10 км слабый снег 10/0
[As op]
-11.5 -13.2 87 -14 -14 по сезону 1020.2 983.6
03 16.02 ЮВ 1 10 км слабый снег 10/0
[As trans Cs]
-13.0 -14.7 87 -15 -15 по сезону 1020.5 983.7 -13.0 49
06 16.02 Ю 1 4000 м слабый снег 9/0
[Cs]
-10.7 -14.0 77 -13 -11 по сезону 1020.7 984.2 -13.6
09 16.02 З 2 10 км {снег} 8/0
[Cs]
-6.5 -12.2 64 -11 -8 по сезону 1019.9 984.0
12 16.02 З 1 10 км {снег} 8/4 600 м
[Cb calv Cs]
-6.9 -12.8 63 -9 -9 по сезону 1019.4 983.5
15 16.02 З 2 10 км ясно -9.6 -13.7 72 -14 -14 по сезону 1020.5 984.2 -6.3
18 16.02 З 2 10 км 3/0
[Cs]
-11.9 -14.5 81 -16 -16 по сезону 1021.4 984.7
21 16.02 З 1 10 км 3/0
[Cs]
-14.0 -15.8 86 -16 -16 по сезону 1022.1 985.1
00 17.02 СЗ 3 10 км 3/0
[Cs]
-15.1 -17.3 83 -22 -22 прохладно 1022.4 985.3
03 17.02 З 2 4000 м дымка ясно -17.3 -19.4 84 -23 -23 прохладно 1023.3 985.8 -17.4 49
06 17.02 З 2 10 км 3/0
[Cs]
-13.5 -16.8 76 -18 -16 по сезону 1023.2 986.2
09 17.02 СЗ 4 50 км ясно -8.8 -14.8 62 -15 -14 по сезону 1021.6 985.4
12 17.02 З 4
{10}
50 км ясно -8.3 -15.4 57 -15 -15 по сезону 1020.9 984.7
15 17.02 З 3 10 км ясно -11.6 -15.6 72 -18 -18 прохладно 1021.1 984.5 -7.6
18 17.02 ЮЗ 2 10 км ясно -13.5 -16.4 79 -18 -18 по сезону 1021.1 984.2
21 17.02 З 2 10 км ясно -14.5 -17.1 81 -19 -19 по сезону 1020.1 983.1
00 18.02 Ю 2 10 км 6/6 1000 м
[Sc]
-15.3 -17.8 81 -20 -20 по сезону 1018.5 981.4
03 18.02 З 3 10 км 9/9 600 м
[Cb calv]
-12.7 -16.3 74 -19 -19 по сезону 1016.8 980.2 -15.3 49
06 18.02 Ю 2
{10}
20 км слабый ливневой снег 9/4 600 м
[Cb cap Cs]
-12.3 -16.2 73 -17 -16 по сезону 1015.3 978.7
09 18.02 ЮЗ 4 50 км {ливн. осадки} 9/0
[Cs]
-7.9 -15.2 56 -14 -13 по сезону 1012.8 976.9
12 18.02 ЮЗ 3 50 км {ливн. осадки} 9/0
[Ac lent Cs]
-8.0 -15.4 55 -13 -13 по сезону 1011.1 975.3
15 18.02 ЮЗ 3 10 км 6/0
[Ci fib]
-10.4 -15.9 64 -16 -16 по сезону 1010.2 974.1 -7.4 0.0
18 18.02 ЮЗ 4 10 км 8/6 600 м
[Sc Cs]
-10.6 -15.3 68 -18 -18 по сезону 1008.0 972.0
21 18.02 ЮЗ 3 4000 м слабый ливневой снег 10/10 600 м
[Cb cap]
-10.7 -14.7 72 -17 -17 по сезону 1005.8 969.9
00 19.02 ЮЗ 3 4000 м слабый ливневой снег 9/9 600 м
[Cb cap]
-10.2 -14.7 70 -16 -16 по сезону 1003.3 967.5
03 19.02 ЮЗ 4 4000 м слабый ливневой снег 10/10 600 м
[Cb cap]
-11.1 -15.2 72 -18 -18 по сезону 1001.4 965.5 -11.2 0.0 48
06 19.02 ЮЗ 2 10 км слабый ливневой снег 10/10 600 м
[Cb cap]
-10.1 -14.0 73 -15 -15 по сезону 999.4 963.7 -11.4
09 19.02 ЮЗ 2 4000 м слабый снег {ливн. осадки} 9/0
[Ac As]
-7.5 -11.4 74 -12 -11 по сезону 997.4 962.1
12 19.02 З 4 10 км в посл. час снег {ливн. осадки} 10/0
[Ac As]
-7.9 -11.4 76 -15 -14 прохладно 997.1 961.8
15 19.02 З 3 10 км {метель} 10/0
[Ac trans Cc]
-9.1 -12.0 79 -15 -15 по сезону 999.0 963.5 -7.2 0.2
18 19.02 З 5
{11}
10 км {ливн. осадки, метель} 3/3 600 м
[Sc diur, vesp]
-8.2 -12.2 73 -16 -16 по сезону 1001.3 965.9
21 19.02 З 7-13
{17}
10 км позёмок {метель} 9/9 600 м
[Sc]
-9.3 -15.1 63 -18 -18 по сезону 1005.7 969.9
00 20.02 З 4
{13}
10 км позёмок {метель} 9/9 600 м
[Sc]
-10.0 -15.1 66 -17 -17 по сезону 1008.5 972.5
03 20.02 З 4
{11}
10 км {метель} 10/0
[Ac trans Cc]
-10.6 -13.9 77 -18 -18 по сезону 1008.6 972.6 -10.6 0.0 49
06 20.02 Ю 3 10 км слабый снег {метель} 10/0
[As op]
-7.6 -11.7 72 -13 -13 по сезону 1004.8 969.3
09 20.02 Ю 3 1000 м снег 10/0
[As op]
-5.2 -7.1 86 -11 -10 по сезону 1000.1 965.1
12 20.02 ЮЗ 3 10 км слабый ливневой снег 10/8 600 м
[Cb cap Cs]
-2.5 -5.5 80 -8 -8 по сезону 997.7 963.1
15 20.02 ЮЗ 5 10 км слабый ливневой снег 8/8 600 м
[Cb cap]
-1.8 -5.3 77 -8 -8 по сезону 996.3 961.8 -1.8 2
18 20.02 З 5
{16}
10 км слабый ливневой снег {метель} 8/8 600 м
[Cb cap]
-0.7 -4.3 77 -7 -7 тепло 995.1 960.8
21 20.02 З 5-10
{16}
10 км позёмок {ливн. осадки, метель} 8/8 600 м
[Cb calv]
0.0 -3.9 75 -6 -6 тепло 994.3 960.2
00 21.02 ЮЗ 6-11
{14}
10 км {ливн. осадки, метель} 10/10 600 м
[Sc]
+1.0 -3.3 73 -5 -5 тепло 994.5 960.5
03 21.02 ЮЗ 4
{12}
4000 м слабая крупа {ливн. осадки} 10/10 600 м
[Cb cap]
+0.5 -2.2 82 -5 -5 тепло 995.6 961.5 -1.8 0.2 48
06 21.02 ЮЗ 5-10
{10}
10 км слабый ливневой снег 10/10 600 м
[Cb cap]
+0.7 -3.2 75 -5 -5 тепло 996.9 962.7
09 21.02 ЮЗ 6-11
{14}
20 км {ливн. осадки} 10/10 600 м
[Cb cap]
+1.0 -4.3 68 -5 -5 тепло 998.2 964.0
12 21.02 ЮЗ 5
{11}
10 км слабая крупа {ливн. осадки} 10/10 600 м
[Cb cap]
0.0 -4.0 74 -6 -6 по сезону 999.0 964.7
15 21.02 ЮЗ 3
{10}
10 км {ливн. осадки} 10/10 600 м
[Cb cap]
-1.3 -4.4 79 -6 -6 тепло 1000.0 965.4 +1.3 0.3
18 21.02 ЮЗ 4-11
{11}
10 км {ливн. осадки} 10/10 600 м
[Cb cap]
-1.1 -5.0 75 -7 -7 тепло 1000.2 965.7

 

Местоположение метеостанции Екатеринбург (Свердловская область, Россия): широта 56.83 долгота 60.63 высота над уровнем моря 281 м.

В архиве по умолчанию представлена погода в Екатеринбурге за последнюю неделю. Архивные данные за месяц целиком и за предыдущие месяцы, начиная с января 2011 года, Вы можете получить, выбрав интересующий диапазон дат из раскрывающегося списка и нажав кнопку "Ввод!".

Внимание! Время в таблицах - всемирное. Для получения местного времени необходимо прибавить поправку, которая в Екатеринбурге равна 5 ч.

Смотрите также архив погоды в соседних городах и на ближайших метеорологических станциях:

Погода в Верхнем Дуброво (Свердловская область, Россия) (29 км)
Погода в Сысерти (Свердловская область, Россия) (38 км)
Погода в Ревде (Свердловская область, Россия) (40 км)
Погода в Невьянске (Свердловская область, Россия) (78 км)
Погода в Верхнем Уфалее (Челябинская область, Россия) (86 км)
Погода в Каменск-Уральском (Свердловская область, Россия) (88 км)
Погода в Бисерти (Свердловская область, Россия) (95 км)
Погода в Артемовском (Свердловская область, Россия) (98 км)
Погода в Михайловске (Свердловская область, Россия) (105 км)
Погода в Нязепетровске (Челябинская область, Россия) (108 км)

Пояснения к столбцам:

Ветер - указаны скорость ветра в м/с - средняя за 10 мин, порывы в срок и между сроками (в фигурных скобках) и направление, откуда дует ветер: С - северный, СВ - северо-восточный, В - восточный, ЮВ - юго-восточный, Ю - южный, ЮЗ - юго-западный, З - западный, СЗ - северо-западный.
Видимость - горизонтальная дальность видимости в метрах или километрах. При видимости от 1 до 10 км при отсутствии осадков обычно наблюдается дымка, при ухудшении видимости до 1 км и менее - туман. В сухую погоду видимость может ухудшаться дымом, пылью или мглою.
Явления - указаны атмосферные явления, наблюдавшиеся в срок или в последний час перед сроком; фигурными скобками обозначены явления, наблюдавшиеся между сроками (за 1-3 часа до срока); квадратными скобками обозначены град или гололедные отложения с указанием их диаметра в мм.
Облачность - указаны через наклонную черту общая и нижняя облачность в баллах и высота нижней границы облаков в метрах; квадратными скобками обозначены формы облаков: Ci - перистые, Cs - перисто-слоистые, Cc - перисто-кучевые, Ac - высококучевые, As - высокослоистые, Sc - слоисто-кучевые, Ns - слоисто-дождевые, Cu - кучевые, Cb - кучево-дождевые. Подробнее классификацию облаков см. в Атласе облаков (PDF).
T - Температура воздуха - температура, измеренная на высоте 2 м над землей.
Td - Температура точки росы - температура, при понижении до которой содержащийся в воздухе водяной пар достигнет насыщения.
f - Относительная влажность воздуха - влажноcть воздуха, измеренная на высоте 2 м над землей.
Te - Эффективная температура - температура, которую ощущает одетый по сезону человек в тени. Характеристика душности погоды. При расчете учитывается влияние влажности воздуха и скорости ветра на теплоощущения человека.
Tes - Эффективная температура на солнце - температура, которую ощущает человек, с поправкой на солнечный нагрев. Характеристика знойности погоды. Зависит от высоты солнца над горизонтом, облачности и скорости ветра. Ночью, в пасмурную погоду, а также при ветре 12 м/с и более поправка равна нулю.
P - Атмосферное давление - приведенное к уровню моря атмосферное давление.
Po - Атмосферное давление - измеренное на уровне метеостанции атмосферное давление.
Tmin - Минимальная температура - минимум температуры воздуха на высоте 2 м над землей.
Tmax - Максимальная температура - максимум температуры воздуха на высоте 2 м над землей.
R - Количество осадков - Количество выпавших осадков, мм. При наведении курсора мыши на число - период времени, за который выпало указанное количество осадков.
S - Снежный покров - Высота снежного покрова, см. При наведении курсора мыши на число - состояние снежного покрова и степень покрытия местности в баллах.